[[{"header":{"parameterUnit":"m.s-1","parameterCategory":1,"la1":30.2991,"la2":30.254,"lo1":-89.0895,"lo2":-89.0444,"dy":0.0017,"dx":0.0017,"nx":28,"ny":28,"refTime":"2023-08-04T21:00:00:Z","depth":0,"parameterNumber":2,"parameterNumberName":"U-component_of_WINDS"},"data":[0,0,0,0,0,0,0,0,0,0,0,0,0,0,0,0,0,0,0,0,0,0,0,0,0,0,0,0,0,0,0,0,0,0,0,0,0,0,0,0,0,0,0,0,0,0,0,0,0,0,0,0,0,0,0,0,0,0,1.7827,1.7828,0,1.7959,1.7961,1.7962,1.7976,1.7975,1.7973,1.7972,1.8112,1.8116,1.8121,0,0,0,0,0,0,0,0,0,0,0,0,0,1.7586,1.7591,1.7827,1.7828,1.783,1.7959,1.7961,1.7963,1.7976,1.7974,1.7973,1.7971,1.811,1.8116,1.8122,0,0,0,0,0,0,0,0,0,0,0,0,0,1.7702,1.7592,1.7826,1.7852,1.7856,1.7959,1.7961,1.7963,1.7977,1.7974,1.7972,1.797,1.8108,1.8115,1.8123,1.821,0,0,1.8146,1.8149,0,0,0,0,0,0,0,0,1.7696,1.7711,1.7847,1.785,1.7855,1.7949,1.7928,1.8046,1.7977,1.7931,1.7972,1.7969,1.8059,1.8071,1.81,1.8217,1.8223,1.8146,1.8151,1.8154,1.8156,0,0,0,0,0,0,0,1.7688,1.7705,1.7879,1.7849,1.7854,1.7858,1.7872,1.795,1.8005,1.7935,1.7936,1.7951,1.8061,1.8093,1.8104,1.8225,1.8146,1.8153,1.8157,1.816,1.8419,1.8421,0,0,0,0,0,0,1.7674,1.7699,1.7875,1.7883,1.7768,1.7864,1.7879,1.7921,1.8004,1.8015,1.7953,1.7951,1.8081,1.8095,1.8109,1.8216,1.8154,1.8161,1.8165,1.8416,1.8419,1.8422,0,0,0,0,0,0,1.7669,1.769,1.787,1.7791,1.7814,1.787,1.7916,1.7925,1.7956,1.8018,1.8028,1.7975,1.808,1.8098,1.8184,1.8221,1.8164,1.8171,1.8413,1.8417,1.842,1.8431,0,0,0,0,0,0,1.7662,1.7688,1.7722,1.7792,1.7819,1.7942,1.7919,1.7929,1.7969,1.7968,1.8042,1.8052,1.808,1.8173,1.8192,1.823,1.8177,1.841,1.8415,1.8419,1.8427,1.8434,1.844,0,0,0,0,0,1.7654,1.772,1.7723,1.7744,1.7861,1.7945,1.796,1.799,1.7972,1.8006,1.8045,1.805,1.8214,1.8182,1.8203,1.8244,1.8408,1.8414,1.8419,1.8424,1.8433,1.844,0,0,0,0,0,0,1.7654,1.773,1.7734,1.7825,1.7878,1.7947,1.7991,1.7998,1.8058,1.8055,1.809,1.8107,1.8191,1.8227,1.819,1.8332,1.8309,1.8319,1.8306,1.8315,1.8321,1.831,1.8183,0,0,0,0,0,1.7665,1.7725,1.7789,1.7863,1.7889,1.7935,1.7973,1.7991,1.8048,1.807,1.8116,1.8172,1.8236,1.8277,1.834,1.8432,1.8448,1.8471,1.8477,1.8482,1.849,1.854,1.8551,1.8439,1.8439,1.8439,0,0,1.7688,1.7737,1.7773,1.7864,1.7907,1.7969,1.7954,1.8021,1.8067,1.8081,1.8164,1.82,1.8264,1.8353,1.8395,1.8385,1.8524,1.8489,1.8492,1.8498,1.8547,1.8557,1.8566,1.8443,1.8442,1.8441,0,0,1.7761,1.7804,1.787,1.7913,1.7978,1.8008,1.8023,1.8091,1.8114,1.8198,1.8209,1.8265,1.8375,1.842,1.8457,1.8545,1.8551,1.8565,1.8597,1.8646,1.8655,1.8662,1.8693,1.8703,1.8572,1.8572,1.8573,0,1.7781,1.7874,1.7904,1.7969,1.8009,1.8022,1.8089,1.813,1.8212,1.8239,1.8227,1.8363,1.8408,1.8507,1.8528,1.8558,1.8577,1.8556,1.8651,1.8659,1.8667,1.8696,1.8707,1.8574,1.8573,1.8573,1.8573,0,1.7896,1.796,1.8006,1.8083,1.8128,1.8194,1.8233,1.8275,1.8289,1.832,1.8405,1.8459,1.8531,1.8556,1.8572,1.8657,1.8649,1.8643,1.8621,1.8678,1.8706,1.8718,1.8575,1.8575,1.8574,1.8574,0,0,1.7974,1.8065,1.8081,1.8115,1.8187,1.8238,1.8304,1.8373,1.8408,1.8464,1.8521,1.8612,1.8607,1.8649,1.8669,1.8712,1.8776,1.8701,1.8703,1.8712,1.8872,1.8875,1.8888,1.878,1.8782,1.8784,1.8866,0,1.8054,1.8171,1.8199,1.83,1.8359,1.8372,1.843,1.848,1.8511,1.8566,1.86,1.8664,1.8653,1.8678,1.8721,1.8759,1.8809,1.8754,1.8833,1.8835,1.8815,1.8903,1.8907,1.8981,1.8878,1.888,1.8881,0,1.8163,1.822,1.8326,1.8388,1.8414,1.8465,1.853,1.8583,1.864,1.866,1.8705,1.8721,1.879,1.8764,1.886,1.8822,1.8856,1.888,1.8883,1.8891,1.8861,1.8912,1.9006,1.9017,1.8899,1.8897,1.8896,0,1.8208,1.8311,1.8387,1.8416,1.8491,1.8527,1.856,1.8615,1.8654,1.8711,1.8737,1.8802,1.8838,1.8888,1.892,1.8898,1.9013,1.899,1.9031,1.903,1.9054,1.9052,1.9154,1.9078,1.9078,1.9077,1.9077,0,1.8294,1.8358,1.8407,1.8454,1.8526,1.8558,1.8628,1.8662,1.871,1.8764,1.878,1.883,1.887,1.8926,1.8952,1.9027,1.9043,1.9061,1.9067,1.9059,1.9056,1.9081,1.9076,1.908,1.908,1.9079,1.9079,0,1.8355,1.8391,1.8475,1.8539,1.8556,1.8606,1.8661,1.8707,1.8737,1.8805,1.8823,1.8871,1.8937,1.8974,1.9059,1.9076,1.9159,1.9163,1.9139,1.9141,1.9179,1.9175,1.93,1.9318,1.923,1.9231,1.9232,0,1.8407,1.8457,1.8525,1.8561,1.8594,1.8653,1.8693,1.8726,1.8766,1.8834,1.8872,1.8939,1.8994,1.9099,1.9142,1.9206,1.9211,1.925,1.922,1.921,1.921,1.9206,1.921,1.9255,1.9256,1.9257,1.9257,0,1.8495,1.851,1.8567,1.8629,1.8675,1.8726,1.8777,1.8806,1.8846,1.8891,1.8958,1.9001,1.9085,1.9151,1.9218,1.9253,1.9262,1.9266,1.9278,1.927,1.9254,1.9262,1.9152,1.9263,1.9262,1.9262,1.9262,1.9261,1.8553,1.8597,1.8651,1.8713,1.8754,1.88,1.8846,1.8881,1.8938,1.9008,1.9024,1.9094,1.9149,1.9239,1.9276,1.9331,1.9324,1.9343,1.9347,1.9351,1.9351,1.9245,1.9344,1.9344,1.9343,1.9343,1.9343,0,1.8641,1.8676,1.8732,1.8801,1.885,1.8853,1.8909,1.8949,1.901,1.906,1.9113,1.9189,1.9253,1.93,1.9365,1.94,1.9406,1.9416,1.9413,1.9421,1.9355,1.9337,1.941,1.941,1.941,1.941,1.941,1.941,1.8692,1.8766,1.8787,1.8881,1.8916,1.8984,1.9015,1.9058,1.9097,1.9181,1.9234,1.9264,1.9312,1.938,1.9439,1.9451,1.9474,1.9483,1.9496,1.9433,1.9426,1.9419,1.9402,1.9488,1.9488,1.9557,1.9558,1.9558]},{"header":{"parameterUnit":"m.s-1","parameterCategory":1,"la1":30.2991,"la2":30.254,"lo1":-89.0895,"lo2":-89.0444,"dy":0.0017,"dx":0.0017,"nx":28,"ny":28,"refTime":"2023-08-04T21:00:00:Z","depth":0,"parameterNumber":3,"parameterNumberName":"V-component_of_WINDS"},"data":[0,0,0,0,0,0,0,0,0,0,0,0,0,0,0,0,0,0,0,0,0,0,0,0,0,0,0,0,0,0,0,0,0,0,0,0,0,0,0,0,0,0,0,0,0,0,0,0,0,0,0,0,0,0,0,0,0,0,4.2932,4.2932,0,4.2919,4.2919,4.2919,4.2907,4.2907,4.2907,4.2907,4.2889,4.2889,4.2889,0,0,0,0,0,0,0,0,0,0,0,0,0,4.2941,4.2941,4.2932,4.2932,4.2932,4.2919,4.2919,4.2919,4.2907,4.2907,4.2907,4.2907,4.289,4.2889,4.2889,0,0,0,0,0,0,0,0,0,0,0,0,0,4.2933,4.2941,4.2932,4.2925,4.2924,4.2919,4.2919,4.2919,4.2907,4.2907,4.2907,4.2907,4.289,4.2889,4.2889,4.2889,0,0,4.2887,4.2887,0,0,0,0,0,0,0,0,4.2934,4.2933,4.2926,4.2925,4.2924,4.2915,4.2915,4.2909,4.2907,4.2913,4.2907,4.2907,4.2898,4.2896,4.2894,4.2888,4.2888,4.2887,4.2887,4.2886,4.2886,0,0,0,0,0,0,0,4.2934,4.2933,4.2927,4.2926,4.2925,4.292,4.2918,4.2914,4.2907,4.2913,4.2912,4.2911,4.2897,4.2895,4.2894,4.2887,4.2887,4.2887,4.2886,4.2886,4.2876,4.2876,0,0,0,0,0,0,4.2937,4.2934,4.2927,4.2926,4.2929,4.292,4.2918,4.2918,4.2907,4.2905,4.2911,4.291,4.2896,4.2894,4.2893,4.289,4.2886,4.2886,4.2886,4.2875,4.2876,4.2876,0,0,0,0,0,0,4.2937,4.2936,4.2928,4.293,4.2928,4.292,4.2919,4.2918,4.2915,4.2905,4.2903,4.291,4.2896,4.2894,4.2889,4.2889,4.2886,4.2885,4.2875,4.2875,4.2876,4.2885,0,0,0,0,0,0,4.2937,4.2936,4.2938,4.293,4.2928,4.2926,4.2919,4.2917,4.2915,4.2914,4.2904,4.2902,4.2895,4.289,4.2889,4.2888,4.2885,4.2875,4.2875,4.2876,4.2885,4.2886,4.2886,0,0,0,0,0,4.2937,4.2942,4.2938,4.2938,4.2931,4.2927,4.2925,4.2918,4.2915,4.2915,4.2908,4.2903,4.2889,4.289,4.2888,4.2888,4.2875,4.2875,4.2876,4.2885,4.2886,4.2886,0,0,0,0,0,0,4.295,4.2941,4.2937,4.2939,4.2934,4.2925,4.2925,4.292,4.2915,4.2914,4.2904,4.2902,4.2897,4.2892,4.2893,4.2885,4.2881,4.2881,4.2889,4.289,4.289,4.2891,4.2884,0,0,0,0,0,4.2953,4.2952,4.2943,4.2946,4.2943,4.2935,4.2932,4.2927,4.2921,4.2918,4.2911,4.2903,4.2896,4.2893,4.2887,4.2884,4.2879,4.2882,4.2883,4.2883,4.2883,4.2877,4.2877,4.2876,4.2876,4.2876,0,0,4.2959,4.2954,4.2954,4.2948,4.2943,4.2939,4.2933,4.2931,4.2927,4.2917,4.2912,4.2906,4.2896,4.2892,4.2889,4.2887,4.2882,4.2884,4.2884,4.2883,4.2877,4.2877,4.2877,4.2876,4.2876,4.2876,0,0,4.2968,4.2966,4.2966,4.296,4.2953,4.2947,4.2947,4.2938,4.2933,4.2928,4.2919,4.2914,4.2904,4.2897,4.2892,4.2893,4.2887,4.2891,4.2895,4.2889,4.2889,4.2889,4.2887,4.2886,4.2891,4.2891,4.2891,0,4.2977,4.2973,4.2966,4.2963,4.2959,4.295,4.2948,4.2943,4.2934,4.293,4.2928,4.2913,4.2906,4.2897,4.2897,4.2895,4.2891,4.2893,4.289,4.289,4.289,4.2887,4.2887,4.2892,4.2892,4.2892,4.2891,0,4.2982,4.2979,4.298,4.2971,4.2967,4.2965,4.2954,4.2951,4.2945,4.2937,4.293,4.2921,4.2911,4.2908,4.2903,4.2898,4.2896,4.2892,4.2888,4.289,4.2888,4.2887,4.2892,4.2892,4.2892,4.2892,0,0,4.3001,4.2986,4.2986,4.298,4.2969,4.2966,4.2961,4.2952,4.2948,4.294,4.2934,4.2924,4.2919,4.2913,4.2906,4.2901,4.2899,4.2897,4.2896,4.2896,4.2888,4.2891,4.289,4.2894,4.2894,4.2894,4.2888,0,4.3007,4.3,4.2992,4.2986,4.2981,4.2971,4.2966,4.2957,4.295,4.2942,4.2933,4.2925,4.2921,4.2916,4.2911,4.29,4.2897,4.2901,4.2886,4.2885,4.2888,4.2889,4.2893,4.2888,4.2888,4.2888,4.2887,0,4.3014,4.3007,4.3001,4.2987,4.2985,4.2981,4.297,4.2964,4.2952,4.2947,4.2938,4.293,4.2921,4.2918,4.2903,4.2906,4.2899,4.2892,4.2891,4.2889,4.2886,4.2885,4.2887,4.2885,4.2886,4.2886,4.2887,0,4.3025,4.3014,4.3008,4.3004,4.2988,4.2985,4.2978,4.2966,4.296,4.2949,4.2944,4.2933,4.2926,4.2915,4.2903,4.2902,4.2888,4.2885,4.2881,4.2881,4.2878,4.2879,4.2877,4.2876,4.2876,4.2876,4.2876,0,4.3032,4.3028,4.3012,4.3009,4.3003,4.2992,4.2985,4.2977,4.2966,4.2958,4.2948,4.294,4.2925,4.2914,4.2904,4.2892,4.2889,4.2882,4.2879,4.2882,4.2883,4.2877,4.2876,4.2876,4.2876,4.2876,4.2876,0,4.3044,4.3033,4.3026,4.3011,4.3007,4.3003,4.2989,4.2983,4.2974,4.2964,4.2961,4.2945,4.2932,4.2918,4.29,4.2893,4.288,4.2877,4.2885,4.2883,4.2878,4.2878,4.2872,4.287,4.2872,4.2872,4.2872,0,4.3048,4.3045,4.3029,4.3024,4.3017,4.3009,4.3002,4.2989,4.2982,4.2966,4.2961,4.2947,4.2935,4.2914,4.29,4.2885,4.288,4.2879,4.2878,4.288,4.2877,4.2877,4.2875,4.2879,4.2879,4.2879,4.2879,0,4.3057,4.3051,4.3042,4.3031,4.3023,4.3013,4.3002,4.2998,4.2982,4.2974,4.2961,4.2951,4.2932,4.2917,4.29,4.289,4.288,4.2879,4.2877,4.288,4.2884,4.2879,4.2884,4.288,4.288,4.288,4.288,4.288,4.3063,4.3059,4.3046,4.3035,4.3026,4.3016,4.3009,4.2997,4.2987,4.2971,4.2963,4.2949,4.2932,4.2908,4.2898,4.2885,4.2882,4.288,4.2879,4.2878,4.2878,4.2887,4.2882,4.2881,4.2881,4.2881,4.2881,0,4.3069,4.306,4.305,4.3036,4.3026,4.302,4.3006,4.2998,4.2986,4.2973,4.2961,4.2943,4.2928,4.2911,4.2894,4.2886,4.2881,4.2881,4.2881,4.2878,4.2882,4.2885,4.2885,4.2885,4.2885,4.2885,4.2885,4.2885,4.3071,4.3062,4.3054,4.3038,4.3028,4.3015,4.3007,4.2996,4.2985,4.2966,4.2954,4.2943,4.2927,4.2908,4.2892,4.2887,4.288,4.2881,4.2875,4.2879,4.2878,4.2878,4.2881,4.288,4.288,4.2872,4.2872,4.2872]}]]